2023/01/25 00:00:00,67.0,-7.1
2023/01/25 00:10:00,67.4,-6.7
2023/01/25 00:20:00,67.6,-6.9
2023/01/25 00:30:00,67.8,-6.7
2023/01/25 00:40:00,68.3,-6.7
2023/01/25 00:50:00,68.7,-6.8
2023/01/25 01:00:00,69.2,-6.3
2023/01/25 01:10:00,69.7,-7.1
2023/01/25 01:20:00,69.5,-6.8
2023/01/25 01:30:00,69.4,-6.8
2023/01/25 01:40:00,69.7,-6.7
2023/01/25 01:50:00,70.3,-7.1
2023/01/25 02:00:00,70.9,-6.8
2023/01/25 02:10:00,71.7,-6.7
2023/01/25 02:20:00,72.6,-6.9
2023/01/25 02:30:00,73.2,-7.0
2023/01/25 02:40:00,73.4,-6.9
2023/01/25 02:50:00,73.6,-6.7
2023/01/25 03:00:00,74.2,-7.2
2023/01/25 03:10:00,74.8,-6.8
2023/01/25 03:20:00,75.5,-6.8
2023/01/25 03:30:00,76.2,-7.3
2023/01/25 03:40:00,76.2,-7.1
2023/01/25 03:50:00,76.2,-6.9
2023/01/25 04:00:00,76.5,-6.8
2023/01/25 04:10:00,77.0,-7.1
2023/01/25 04:20:00,77.4,-7.2
2023/01/25 04:30:00,77.9,-6.8
2023/01/25 04:40:00,78.5,-6.7
2023/01/25 04:50:00,79.1,-6.8
2023/01/25 05:00:00,79.6,-6.7
2023/01/25 05:10:00,80.8,-6.7
2023/01/25 05:20:00,82.0,-6.3
2023/01/25 05:30:00,82.7,-6.5
2023/01/25 05:40:00,83.7,-6.6
2023/01/25 05:50:00,84.1,-6.5
2023/01/25 06:00:00,84.3,-6.6
2023/01/25 06:10:00,84.6,-6.4
2023/01/25 06:20:00,84.9,-6.4
2023/01/25 06:30:00,85.2,-6.5
2023/01/25 06:40:00,85.8,-6.4
2023/01/25 06:50:00,86.3,-6.3
2023/01/25 07:00:00,88.5,-6.2
2023/01/25 07:10:00,89.1,-6.3
2023/01/25 07:20:00,89.0,-6.3
2023/01/25 07:30:00,89.8,-6.1
2023/01/25 07:40:00,90.4,-6.1
2023/01/25 07:50:00,90.4,-6.5
2023/01/25 08:00:00,90.4,-6.2
2023/01/25 08:10:00,90.7,-6.0
2023/01/25 08:20:00,90.4,-6.1
2023/01/25 08:30:00,90.1,-6.1
2023/01/25 08:40:00,89.7,-5.8
2023/01/25 08:50:00,89.4,-5.7
2023/01/25 09:00:00,89.2,-5.6
2023/01/25 09:10:00,88.9,-5.2
2023/01/25 09:20:00,88.5,-5.0
2023/01/25 09:30:00,88.1,-4.6
2023/01/25 09:40:00,87.8,-4.5
2023/01/25 09:50:00,87.5,-4.6
2023/01/25 10:00:00,87.4,-4.6
2023/01/25 10:10:00,86.9,-4.1
2023/01/25 10:20:00,86.8,-4.0
2023/01/25 10:30:00,86.5,-3.9
2023/01/25 10:40:00,86.3,-4.3
2023/01/25 10:50:00,86.8,-4.0
2023/01/25 11:00:00,86.9,-3.4
2023/01/25 11:10:00,86.7,-2.6
2023/01/25 11:20:00,86.4,-2.6
2023/01/25 11:30:00,86.3,-1.8
2023/01/25 11:40:00,86.0,-1.2
2023/01/25 11:50:00,85.7,-0.6
2023/01/25 12:00:00,85.5,-0.4
2023/01/25 12:10:00,85.4,-0.3
2023/01/25 12:20:00,85.0,-1.4
2023/01/25 12:30:00,84.6,-1.8
2023/01/25 12:40:00,84.3,-2.0
2023/01/25 12:50:00,85.3,-2.1
2023/01/25 13:00:00,86.2,-2.4
2023/01/25 13:10:00,87.5,-1.9
2023/01/25 13:20:00,88.0, 0.0
2023/01/25 13:30:00,87.9,-0.1
2023/01/25 13:40:00,87.5,-1.0
2023/01/25 13:50:00,88.0,-1.7
2023/01/25 14:00:00,88.7,-2.1
2023/01/25 14:10:00,88.8,-2.0
2023/01/25 14:20:00,89.4,-2.3
2023/01/25 14:30:00,89.7,-1.9
2023/01/25 14:40:00,89.8,-1.0
2023/01/25 14:50:00,89.6, 0.0
2023/01/25 15:00:00,89.3,-1.2
2023/01/25 15:10:00,89.1,-1.9
2023/01/25 15:20:00,89.6,-2.0
2023/01/25 15:30:00,90.2,-2.1
2023/01/25 15:40:00,90.1,-1.9
2023/01/25 15:50:00,90.1,-2.0
2023/01/25 16:00:00,89.9,-1.3
2023/01/25 16:10:00,89.7,-0.1
2023/01/25 16:20:00,89.4,-0.9
2023/01/25 16:30:00,89.4,-1.2
2023/01/25 16:40:00,89.2,-1.5
2023/01/25 16:50:00,89.2,-2.5
2023/01/25 17:00:00,88.9,-3.0
2023/01/25 17:10:00,88.7,-3.1
2023/01/25 17:20:00,88.5,-3.2
2023/01/25 17:30:00,88.4,-3.4
2023/01/25 17:40:00,88.4,-3.2
2023/01/25 17:50:00,88.2,-3.4
2023/01/25 18:00:00,88.0,-3.4
2023/01/25 18:10:00,87.8,-3.3
2023/01/25 18:20:00,87.5,-3.3
2023/01/25 18:30:00,87.5,-3.5
2023/01/25 18:40:00,87.5,-3.8
2023/01/25 18:50:00,87.3,-3.6
2023/01/25 19:00:00,87.3,-3.4
2023/01/25 19:10:00,87.3,-3.9
2023/01/25 19:20:00,87.3,-3.7
2023/01/25 19:30:00,87.3,-4.0
2023/01/25 19:40:00,87.3,-3.8
2023/01/25 19:50:00,87.5,-3.9
2023/01/25 20:00:00,87.6,-3.9
2023/01/25 20:10:00,87.6,-4.1
2023/01/25 20:20:00,87.4,-4.1
2023/01/25 20:30:00,87.3,-4.0
2023/01/25 20:40:00,87.2,-3.9
2023/01/25 20:50:00,87.0,-3.7
2023/01/25 21:00:00,86.7,-3.9
2023/01/25 21:10:00,86.5,-4.3
2023/01/25 21:20:00,86.5,-4.1
2023/01/25 21:30:00,86.5,-4.2
2023/01/25 21:40:00,86.3,-3.8
2023/01/25 21:50:00,85.8,-4.8
2023/01/25 22:00:00,85.7,-5.0
2023/01/25 22:10:00,85.6,-5.5
2023/01/25 22:20:00,85.4,-6.2
2023/01/25 22:30:00,85.6,-6.2
2023/01/25 22:40:00,85.3,-6.3
2023/01/25 22:50:00,84.9,-5.9
2023/01/25 23:00:00,84.6,-5.6
2023/01/25 23:10:00,84.4,-6.0
2023/01/25 23:20:00,84.3,-6.7
2023/01/25 23:30:00,84.1,-6.9
2023/01/25 23:40:00,84.0,-6.3
2023/01/25 23:50:00,84.1,-6.2
